CUTE-1.7+APD II (CO-65)

Last updated on Tue Jan 14 2025 00:03:00 GMT+0000 (Coordinated Universal Time)

1 32785U 08021C 25013.15479563 .00006419 00000+0 49980-3 0 9999 2 32785 97.7682 343.7013 0009888 12.3601 347.7863 15.01546142907006
UTC large
Height (km)
Speed (km/s)
/
Latitude / Longitude
Inclination (degrees)
Orbital Period (minutes)
Azimuth
Elevation
Range (km)
Doppler Factor

Next 0 passes for location: London (51.5072 / 0.1276)

Sorry there are no passes over London.